Regional Weather Roundup
Issued by NWS Jackson, KY

Home | Current Version | Previous Version | Text Only | Print | Product List | Glossary Off
Versions: 1 2 3 4 5 6 7 8 9 10 11 12 13 14 15 16 17 18 19 20 21 22 23 24 25 26 27 28

000
ASUS43 KJKL 230210
RWRJKL

EAST KENTUCKY HOURLY WEATHER ROUNDUP
NATIONAL WEATHER SERVICE JACKSON KY
900 PM EST THU FEB 22 2018

NOTE: "FAIR" INDICATES FEW OR NO CLOUDS BELOW 12,000 FEET WITH
NO SIGNIFICANT WEATHER AND/OR OBSTRUCTIONS TO VISIBILITY.

* THESE REPORTS ARE NOT UNDER NWS QUALITY CONTROL AND MAY NOT
  REPORT WEATHER SUCH AS PRECIPITATION AND FOG.

KYZ079-080-083-085-087-088-110-112-115-119-120-230300
...EASTERN KENTUCKY...

CITY           SKY/WX    TMP DP  RH WIND       PRES   REMARKS
JACKSON        CLOUDY    54  52  93 NE3       30.37S FOG
LONDON           N/A     60  59  96 SE3       30.35S
SOMERSET*        N/A     57  57 100 CALM      30.35S FOG
WILLIAMSBURG*    N/A     63  63 100 CALM      30.36R
MIDDLESBORO*     N/A     61  60  99 CALM      30.36S
HARLAN APT*      N/A     61  59  94 CALM      30.37S
PIKE CO APT*     N/A     55  55 100 E3        30.38S
BIG SANDY APT*   N/A     52  52 100 CALM      30.38S
MOREHEAD APT*  CLOUDY    48  46  93 VRB5      30.37F FOG
ASHLAND*       CLOUDY    47  45  93 E3        30.40F
$$

KYZ035-036-041-042-044-050-067-078-099-230300
...CENTRAL KENTUCKY...

CITY           SKY/WX    TMP DP  RH WIND       PRES   REMARKS
MT STERLING*   CLOUDY    50  50 100 CALM      30.37S FOG
FLEMING/MASON* CLOUDY    45  45 100 E7        30.38S FOG
DANVILLE*      FOG       52  52 100 CALM      30.37R VSB 1/2
LEXINGTON      FOG       50  48  93 NE6       30.35S VSB 1
FRANKFORT      CLOUDY    49  46  90 E5        30.34F FOG
LOUISVILLE     FOG       50  48  93 NE5       30.35R VSB 1
LEBANON*       CLOUDY    54  54 100 CALM      30.34F
GLASGOW*       CLOUDY   N/A N/A N/A CALM      30.34R FOG
BOWLING GREEN  CLOUDY    58  58 100 CALM      30.34R
$$

KYZ091>093-OHZ055-061-077-WVZ005-015-034-035-042-230300
...SOUTHERN OHIO/WEST VIRGINIA...

CITY           SKY/WX    TMP DP  RH WIND       PRES   REMARKS
COVINGTON      DRIZZLE   45  44  97 NE7       30.38R FOG
COLUMBUS       CLOUDY    44  41  89 E12       30.41F
DAYTON         CLOUDY    43  43 100 E13       30.39F
WILMINGTON     CLOUDY    43  43 100 E8        30.39S FOG
HUNTINGTON     CLOUDY    47  45  93 NE5       30.39S
CHARLESTON     MOCLDY    50  50 100 CALM      30.40R
BECKLEY          N/A     57  55  93 SE5       30.42R
BLUEFIELD        N/A     59  54  83 E3        30.44R
LOGAN CO APT*    N/A     55  55 100 CALM      30.39R
$$

VAZ002-007-008-TNZ017-027-036-066-071-230300
...SOUTHWEST VIRGINIA/EAST TENNESSEE...

CITY           SKY/WX    TMP DP  RH WIND       PRES   REMARKS
WISE*            N/A     59  59 100 CALM      30.42S
JONESVILLE*      N/A     63  57  82 CALM      30.38S
ABINGDON*        N/A     64  56  73 CALM      30.39S
BRISTOL        MOCLDY    64  57  78 CALM      30.36S
MORRISTOWN*    CLEAR     64  59  82 CALM      30.36R
SEVIERVILLE*   CLEAR     64  59  82 CALM      30.35R
KNOXVILLE      MOCLDY    66  61  84 CALM      30.34R
LAFOLLETTE*    PTCLDY    61  59  94 CALM      30.38S
OAK RIDGE      MOCLDY    63  63 100 SW3       30.35S FOG
CROSSVILLE     FOG       58  58 100 CALM      30.38S VSB 1/4
NASHVILLE      FOG       58  58 100 CALM      30.33F VSB 1/8
$$

...KEY TO REMARKS...
VSB - VISIBILITY IN MILES
WCI - WIND CHILL INDEX
HX  - HEAT INDEX

$$




USA.gov is the U.S. government's official web portal to all federal, state and local government web resources and services.